Location: Unspecified
(0.0000°N, 0.0000°E)
Time: 01:08:13
(UTC+00:00)

Daily predictions for brighter satellites

Satellite Brightness Start Highest point End
(mag) Time Altitude Azimuth Time Altitude Azimuth Time Altitude Azimuth
Ariane H10 3.9 02:27:30 10° W 03:11:47 81° N 03:16:45 10° ENE
Cosmos 2263 Rocket 3.5 03:20:27 35° NE 03:20:27 35° NE 03:23:53 10° NNE
Intelsat 5-3 Rocket 4.3 03:33:49 45° SE 03:33:49 45° SE 03:37:00 10° SE
Cosmos 1634 Rocket 4.1 03:48:32 10° N 03:54:38 71° E 04:00:06 13° S
ADEOS II 3.6 03:49:38 10° N 03:52:00 26° NNW 03:52:00 26° NNW
Cosmos 2084 4.2 03:58:48 51° ENE 03:58:48 51° ENE 04:02:07 10° NNE
Meteor 1-31 Rocket 3.8 03:56:23 10° NNE 03:59:44 44° E 03:59:44 44° E
Atlas Centaur 2 3.3 04:00:58 46° WNW 04:03:07 57° NNW 04:11:21 10° NE
Cosmos 1862 Rocket 3.8 03:58:59 10° N 04:03:08 64° ENE 04:03:08 64° ENE
ATLAS 2AS CENTAUR RB 3.1 04:07:51 28° SSE 04:08:17 29° SSE 04:17:04 10° E
Meteor 2-10 Rocket 3.9 04:08:22 10° N 04:13:21 63° E 04:18:32 10° SSE
Ariane H10+ 2.6 04:13:35 62° WNW 04:14:18 80° N 04:17:13 10° E
Ariane H10 3.4 04:13:17 43° WNW 04:15:23 75° N 04:39:29 10° E
ARIANE R/B 3.1 04:15:25 66° WNW 04:15:50 76° N 04:22:39 10° E
Meteor 2-3 Rocket 4.3 04:22:01 37° WNW 04:22:01 37° WNW 04:26:36 10° NNW
Centaur AC-64 4.0 04:23:04 25° S 04:23:04 25° S 04:28:40 10° SE
BREEZE-M DEB (TANK) 4.0 04:20:55 10° NNW 04:23:50 27° NE 04:25:53 10° ESE
GP-B 4.4 04:20:59 10° NNW 04:23:15 25° NW 04:23:15 25° NW
Cosmos 1825 2.7 04:27:06 21° SSE 04:29:29 58° E 04:33:11 10° NNE
CZ-4B R/B 3.8 04:26:42 10° N 04:30:27 58° W 04:30:46 56° WSW
Cosmos 1869 Rocket 4.0 04:32:42 39° W 04:32:42 39° W 04:36:43 10° NNW
SL-16 R/B 2.4 04:36:52 10° NW 04:42:13 44° WSW 04:47:35 10° S
Feng Yun 1-1 Rocket 4.4 04:39:38 10° N 04:45:02 55° WNW 04:49:54 14° SSW
Cosmos 968 Rocket 3.6 04:42:42 25° SW 04:45:26 51° WNW 04:50:24 10° N
Cosmos 371 Rocket 3.4 04:41:36 10° N 04:46:23 78° ENE 04:51:11 10° SSE
GEOS 3 Rocket 4.0 04:41:49 10° NNE 04:46:57 49° WNW 04:50:06 23° SW
GPS 2-14 Rocket1 3.0 04:45:33 33° W 04:47:05 52° SSW 04:51:12 10° SE
Okean-O 3.1 04:46:15 10° N 04:50:23 41° WNW 04:52:51 21° SW
Cosmos 1408 2.9 04:51:49 22° SSW 04:53:53 45° W 04:57:25 10° NNW
BLOCK DM-SL R/B 2.6 04:47:42 17° W 04:54:10 86° S 04:56:46 10° E
CZ-4C R/B 3.5 04:49:56 10° S 04:54:24 32° ESE 04:58:50 10° NE
Delta 7925 Rocket 4.0 04:48:38 10° NW 04:54:40 61° NNE 04:59:35 10° ESE
Cosmos 2026 Rocket 4.4 04:49:50 10° S 04:56:09 67° E 05:02:22 10° NNE
SWAS 4.5 04:56:05 10° SSW 05:00:24 83° ESE 05:04:42 10° NNE
Hubble Space Telescope 3.3 04:59:18 10° NNW 05:02:26 21° NNE 05:05:34 10° ENE
Cosmos 1844 4.1 04:59:14 10° S 05:04:59 69° ESE 05:10:42 10° NNE
Cosmos 1627 Rocket 4.5 05:01:30 10° S 05:07:51 82° W 05:14:06 10° N
Cosmos 841 Rocket 3.4 05:04:25 10° NNW 05:09:40 79° WSW 05:14:54 10° S
Cosmos 2221 Rocket 3.6 05:10:18 10° NNW 05:14:46 64° W 05:19:12 10° S
SWIFT 4.0 05:12:48 10° WNW 05:16:11 23° NNW 05:19:35 10° NNE
Cosmos 2278 Rocket 3.5 05:13:32 10° S 05:18:50 41° ESE 05:24:07 10° NE
Mugunghwa Rocket 4.0 05:12:40 10° WNW 05:18:58 87° NNE 05:25:29 10° ESE
Tiangong 2 2.6 05:19:49 10° W 05:22:03 18° SW 05:24:20 10° S
CZ-4 R/B 3.8 05:19:48 10° NE 05:23:15 25° ESE 05:26:40 10° SSE
Cosmos 2285 Rocket 4.0 05:18:43 10° NNW 05:24:56 65° WSW 05:31:15 10° S
Okean 1-7 3.3 05:23:19 10° NNW 05:27:21 44° W 05:31:26 10° SSW
Cosmos 1733 Rocket 3.8 05:24:26 10° SSW 05:28:26 34° W 05:32:26 10° NNW
IDEFIX/ARIANE 42P 2.7 05:29:09 10° NNE 05:34:24 88° ESE 05:39:40 10° SSW
Cosmos 1782 2.9 05:31:19 10° NNW 05:35:14 54° W 05:39:11 10° S
NOSS 3-4 (A) 4.0 05:27:49 10° NNW 05:35:20 64° WSW 05:43:04 10° SSE
NOSS 3-4 (C) 4.0 05:27:55 10° NNW 05:35:26 65° WSW 05:43:11 10° SSE
Meteor 2-6 Rocket 4.2 05:30:04 10° N 05:35:27 88° W 05:40:58 10° S
ARIANE 5 R/B 2.2 05:35:10 10° W 05:46:36 69° N 05:49:19 10° E
ATLAS 5 CENTAUR R/B 4.2 06:38:45 10° WNW 07:47:23 64° SSW 07:54:13 10° SE
